Change the Weather History Date:

Wednesday, January 30, 2013

  Actual Average Record
Temperature  
Mean Temperature 57 °F -  
Max Temperature 68 °F 39 °F 68 °F (2013)
Min Temperature 46 °F 22 °F 0 °F (2014)
Degree Days  
Heating Degree Days 8    
Growing Degree Days 7 (Base 50)    
Moisture  
Dew Point 51 °F    
Average Humidity 92    
Maximum Humidity 100    
Minimum Humidity 71    
Precipitation  
Precipitation 0.03 in - - ()
Sea Level Pressure  
Sea Level Pressure 29.79 in    
Wind  
Wind Speed 7 mph (SSW)    
Max Wind Speed 25 mph    
Max Gust Speed 38 mph    
Visibility 6 miles    
Events Rain    
Averages and records for this station are not official NWS values.
T = Trace of Precipitation, MM = Missing Value Source: NWS Daily Summary

Daily Weather History Graph

Daily Weather History Graph

Search for Another Location

Airport or City:

Trip Planner

Search our weather history database for the weather conditions in past years. The results will help you decide how hot, cold, wet, or windy it might be!

Date:

Astronomy

Jan. 30, 2013 Rise Set
Actual Time 7:08 AM EST 5:15 PM EST
Civil Twilight 6:39 AM EST 5:44 PM EST
Nautical Twilight 6:07 AM EST 6:16 PM EST
Astronomical Twilight 5:35 AM EST 6:48 PM EST
Moon 9:11 PM EST (1/30) 8:35 AM EST (1/30)
Length of Visible Light 11h 04m
Length of Day
10h 06m
Waning Gibbous, 88% of the Moon is Illuminated
Jan 30
Waning Gibbous
Feb 3
Last Quarter
Feb 10
New
Feb 17
First Quarter
Feb 25
Full

Hourly Weather History & Observations

Time (EST) Temp. Windchill Dew Point Humidity Pressure Visibility Wind Dir Wind Speed Gust Speed Precip Events Conditions
12:01 AM 48.2 °F - 48.2 °F 100% 30.04 in 5.0 mi South 5.8 mph - N/A   Overcast
12:10 AM 48.2 °F - 48.2 °F 100% 30.04 in 6.0 mi South 8.1 mph - N/A   Overcast
12:30 AM 48.2 °F - 48.2 °F 100% 30.04 in 6.0 mi SSW 8.1 mph - N/A   Overcast
12:55 AM 47.3 °F - 47.1 °F 99% 30.01 in 5.0 mi South 6.9 mph - N/A   Overcast
12:59 AM 46.4 °F 43.5 °F 46.4 °F 100% 30.00 in 4.0 mi South 5.8 mph - N/A   Overcast
1:05 AM 46.4 °F 44.3 °F 46.4 °F 100% 30.00 in 3.0 mi Variable 4.6 mph - N/A   Overcast
1:12 AM 46.4 °F 44.3 °F 46.4 °F 100% 30.00 in 3.0 mi South 4.6 mph - N/A   Overcast
1:14 AM 48.2 °F - 46.4 °F 93% 30.00 in 4.0 mi Variable 6.9 mph - N/A   Overcast
1:21 AM 48.2 °F - 46.4 °F 93% 30.00 in 4.0 mi South 4.6 mph - N/A   Overcast
1:22 AM 48.2 °F - 46.4 °F 93% 29.99 in 4.0 mi South 6.9 mph - N/A   Overcast
1:55 AM 47.5 °F - 47.3 °F 99% 29.99 in 6.0 mi Variable 4.6 mph - N/A   Overcast
2:04 AM 48.2 °F - 46.4 °F 93% 29.98 in 6.0 mi South 5.8 mph - N/A   Overcast
2:14 AM 48.2 °F - 46.4 °F 93% 29.98 in 6.0 mi Variable 4.6 mph - N/A   Overcast
2:25 AM 48.2 °F - 48.2 °F 100% 29.97 in 8.0 mi South 6.9 mph - N/A   Scattered Clouds
2:27 AM 48.2 °F - 48.2 °F 100% 29.97 in 8.0 mi South 6.9 mph - N/A   Scattered Clouds
2:43 AM 48.2 °F - 46.4 °F 93% 29.96 in 9.0 mi South 4.6 mph - N/A   Clear
2:55 AM 46.9 °F - 46.6 °F 99% 29.96 in 8.0 mi South 4.6 mph - N/A   Clear
3:12 AM 46.4 °F 45.2 °F 46.4 °F 100% 29.95 in 6.0 mi South 3.5 mph - N/A   Clear
3:24 AM 46.4 °F 45.2 °F 46.4 °F 100% 29.95 in 6.0 mi South 3.5 mph - N/A   Clear
3:31 AM 46.4 °F 45.2 °F 46.4 °F 100% 29.94 in 7.0 mi Variable 3.5 mph - N/A   Partly Cloudy
3:48 AM 46.4 °F 45.2 °F 46.4 °F 100% 29.93 in 6.0 mi South 3.5 mph - N/A   Partly Cloudy
3:55 AM 46.8 °F - 46.4 °F 99% 29.93 in 6.0 mi Calm Calm - N/A   Partly Cloudy
4:33 AM 46.4 °F - 46.4 °F 100% 29.91 in 4.0 mi Calm Calm - N/A   Clear
4:35 AM 46.4 °F - 46.4 °F 100% 29.91 in 3.0 mi Calm Calm - N/A   Clear
4:37 AM 46.4 °F - 46.4 °F 100% 29.91 in 3.0 mi Calm Calm - N/A   Clear
4:41 AM 46.4 °F - 46.4 °F 100% 29.91 in 2.5 mi Calm Calm - N/A   Clear
4:47 AM 46.4 °F - 46.4 °F 100% 29.91 in 2.0 mi Calm Calm - N/A   Clear
4:48 AM 46.4 °F - 46.4 °F 100% 29.91 in 1.5 mi Calm Calm - N/A   Clear
4:52 AM 46.4 °F - 46.4 °F 100% 29.91 in 1.8 mi Calm Calm - N/A   Clear
4:55 AM 47.3 °F - 47.1 °F 99% 29.91 in 1.8 mi Calm Calm - N/A   Clear
4:56 AM 48.2 °F - 46.4 °F 93% 29.90 in 1.8 mi Calm Calm - N/A   Clear
4:57 AM 48.2 °F - 46.4 °F 93% 29.90 in 1.5 mi Calm Calm - N/A   Clear
4:58 AM 48.2 °F - 46.4 °F 93% 29.90 in 1.8 mi Calm Calm - N/A   Clear
4:59 AM 48.2 °F - 46.4 °F 93% 29.90 in 2.0 mi Calm Calm - N/A   Clear
5:00 AM 48.2 °F - 46.4 °F 93% 29.90 in 1.8 mi Calm Calm - N/A   Clear
5:01 AM 48.2 °F - 46.4 °F 93% 29.91 in 1.5 mi Calm Calm - N/A   Clear
5:02 AM 48.2 °F - 46.4 °F 93% 29.91 in 1.2 mi Calm Calm - N/A   Clear
5:03 AM 48.2 °F - 48.2 °F 100% 29.91 in 1.0 mi Calm Calm - N/A   Clear
5:05 AM 48.2 °F - 48.2 °F 100% 29.91 in 0.8 mi Calm Calm - N/A   Clear
5:12 AM 48.2 °F - 48.2 °F 100% 29.91 in 1.0 mi SW 3.5 mph - N/A   Clear
5:13 AM 48.2 °F - 48.2 °F 100% 29.91 in 1.0 mi SSW 4.6 mph - N/A   Clear
5:14 AM 48.2 °F - 48.2 °F 100% 29.91 in 1.5 mi SSW 5.8 mph - N/A   Partly Cloudy
5:15 AM 48.2 °F - 48.2 °F 100% 29.91 in 2.0 mi SSW 5.8 mph - N/A   Partly Cloudy
5:16 AM 48.2 °F - 48.2 °F 100% 29.91 in 3.0 mi SSW 5.8 mph - N/A   Partly Cloudy
5:35 AM 48.2 °F - 48.2 °F 100% 29.91 in 9.0 mi SSW 9.2 mph - N/A   Scattered Clouds
5:55 AM 49.5 °F - 48.9 °F 98% 29.90 in 10.0 mi SSW 10.4 mph - N/A   Overcast
6:23 AM 50.0 °F - 48.2 °F 94% 29.88 in 9.0 mi South 5.8 mph - N/A   Partly Cloudy
6:55 AM 48.7 °F - 48.2 °F 98% 29.88 in 8.0 mi South 6.9 mph - N/A   Clear
6:57 AM 48.2 °F - 48.2 °F 100% 29.87 in 8.0 mi South 6.9 mph - N/A   Clear
8:55 AM 54.7 °F - 52.7 °F 93% 29.83 in 10.0 mi South 11.5 mph - N/A   Overcast
9:55 AM 58.5 °F - 55.0 °F 88% 29.82 in 10.0 mi SSW 11.5 mph - N/A   Mostly Cloudy
10:36 AM 62.6 °F - 55.4 °F 77% 29.79 in 10.0 mi SSW 16.1 mph 23.0 mph N/A   Mostly Cloudy
10:55 AM 63.3 °F - 56.7 °F 79% 29.78 in 10.0 mi SW 18.4 mph 29.9 mph N/A   Overcast
11:55 AM 63.5 °F - 57.7 °F 81% 29.74 in 10.0 mi SSW 21.9 mph 28.8 mph N/A   Overcast
12:55 PM 65.1 °F - 58.1 °F 78% 29.69 in 10.0 mi SSW 20.7 mph 34.5 mph N/A   Overcast
1:31 PM 68.0 °F - 59.0 °F 73% 29.67 in 10.0 mi SW 25.3 mph 33.4 mph N/A   Mostly Cloudy
1:55 PM 67.1 °F - 58.6 °F 74% 29.64 in 10.0 mi SSW 24.2 mph 38.0 mph N/A   Mostly Cloudy
1:59 PM 68.0 °F - 59.0 °F 73% 29.64 in 10.0 mi SSW 23.0 mph 38.0 mph N/A   Mostly Cloudy
2:27 PM 68.0 °F - 59.0 °F 73% 29.64 in 10.0 mi SW 19.6 mph 32.2 mph N/A   Mostly Cloudy
2:50 PM 66.2 °F - 59.0 °F 78% 29.63 in 10.0 mi SW 19.6 mph 24.2 mph N/A   Scattered Clouds
2:55 PM 67.5 °F - 58.3 °F 72% 29.63 in 10.0 mi SSW 18.4 mph 24.2 mph N/A   Scattered Clouds
3:55 PM 66.7 °F - 57.2 °F 71% 29.62 in 10.0 mi SSW 12.7 mph 24.2 mph N/A   Overcast
4:55 PM 62.6 °F - 55.0 °F 76% 29.59 in 10.0 mi South 12.7 mph 20.7 mph N/A   Partly Cloudy
5:55 PM 61.0 °F - 55.2 °F 81% 29.57 in 10.0 mi South 12.7 mph - N/A   Scattered Clouds
6:36 PM 62.6 °F - 55.4 °F 77% 29.60 in 10.0 mi SW 13.8 mph - N/A   Overcast
6:55 PM 61.5 °F - 56.1 °F 82% 29.59 in 10.0 mi SSW 9.2 mph - N/A   Overcast
7:55 PM 63.9 °F - 56.7 °F 77% 29.55 in 10.0 mi SSW 18.4 mph 31.1 mph N/A   Overcast
8:47 PM 60.8 °F - 55.4 °F 82% 29.50 in 10.0 mi South 11.5 mph - N/A   Scattered Clouds
8:55 PM 61.0 °F - 56.3 °F 85% 29.50 in 10.0 mi South 12.7 mph - N/A   Partly Cloudy
9:55 PM 61.3 °F - 56.8 °F 85% 29.44 in 10.0 mi South 17.3 mph 24.2 mph N/A   Partly Cloudy
10:13 PM 60.8 °F - 57.2 °F 88% 29.44 in 10.0 mi South 15.0 mph 24.2 mph N/A Rain Light Rain
10:18 PM 60.8 °F - 57.2 °F 88% 29.44 in 10.0 mi South 17.3 mph 25.3 mph N/A Rain Light Rain
10:23 PM 60.8 °F - 57.2 °F 88% 29.43 in 10.0 mi South 17.3 mph 25.3 mph N/A   Overcast
10:29 PM 60.8 °F - 57.2 °F 88% 29.42 in 10.0 mi South 19.6 mph 28.8 mph N/A Rain Light Rain
10:43 PM 60.8 °F - 57.2 °F 88% 29.43 in 10.0 mi SSW 15.0 mph 29.9 mph N/A   Overcast
10:53 PM 60.8 °F - 57.2 °F 88% 29.42 in 10.0 mi South 15.0 mph 21.9 mph N/A Rain Light Rain
10:55 PM 61.7 °F - 57.6 °F 86% 29.41 in 7.0 mi South 18.4 mph 25.3 mph 0.02 in Rain Light Rain
11:09 PM 60.8 °F - 57.2 °F 88% 29.40 in 10.0 mi South 18.4 mph 27.6 mph N/A   Overcast
11:10 PM 60.8 °F - 59.0 °F 94% 29.40 in 10.0 mi South 16.1 mph 27.6 mph N/A   Overcast
11:34 PM 62.6 °F - 59.0 °F 88% 29.38 in 10.0 mi SSW 18.4 mph 26.5 mph N/A Rain Light Rain
11:55 PM 62.1 °F - 59.0 °F 90% 29.35 in 8.0 mi SSW 19.6 mph 27.6 mph 0.01 in Rain Light Rain